Flag for Moldova Weather past 2 weeks in Chisinau, Moldova

Now
82 °F

Scattered clouds.


Feels Like: 82 °F
Forecast: 62 / 91 °F
Wind: 16 mph from East

Location: Chisinau International Airport

Current Time: Jul 23, 2014 at 2:30:13 PM

Latest Report: Jul 23, 2014 at 1:00 PM


Visibility: N/A

Pressure: 29.80 "Hg

Humidity: 45%

Dew point: 59 °F

Location of ChisinauLocation

Historic Weather in Chisinau — Graph

°F

Chisinau temperature yesterday

Maximum temperature yesterday: 84 °F (at 1:30 PM)
Minimum temperature yesterday: 64 °F (at 4:30 AM)
Average temperature yesterday: 76 °F

Past Weeks' High & Low Weather Summary

 TemperatureHumidityPressure
High88 °F (Jul 21, 4:00 PM)94% (Jul 11, 7:00 PM)30.01 "Hg (Jul 11, 7:00 PM)
Low59 °F (Jul 9, 6:00 AM)24% (Jul 8, 6:30 PM)29.56 "Hg (Jul 11, 3:30 PM)
Average74 °F62%29.83 "Hg
* Reported Jul 8 1:00 PM — Jul 23 1:00 PM, Chisinau, Weather by CustomWeather, © 2014

Note: Actual official high and low records may vary slightly from our data, if they occured in-between our weather recording intervals... More about our weather records

Advertising

Chisinau weather history for previous 24 hours

 ConditionsComfort  
Time TempWeatherWind HumidityBarometerVisibility
1:00 PM
Jul 23
82 °FScattered clouds.16 mph45%29.80 "HgN/A
12:30 PM79 °FPartly sunny.17 mph51%29.80 "HgN/A
12:00 PM81 °FPartly sunny.18 mph48%29.80 "HgN/A
9:00 AM73 °FPassing clouds.12 mph61%29.83 "HgN/A
8:00 AM70 °FScattered clouds.10 mph73%29.83 "HgN/A
7:30 AM68 °FPartly sunny.10 mph78%29.83 "HgN/A
7:00 AM68 °FPartly sunny.7 mph78%29.83 "HgN/A
6:30 AM66 °FPassing clouds.7 mph83%29.83 "HgN/A
6:00 AM68 °FPassing clouds.5 mph78%29.83 "HgN/A
5:30 AM68 °FPassing clouds.9 mph73%29.83 "HgN/A
5:00 AM68 °FPassing clouds.9 mph78%29.83 "HgN/A
4:30 AM68 °FPassing clouds.9 mph78%29.83 "HgN/A
4:00 AM68 °FPassing clouds.10 mph78%29.83 "HgN/A
3:30 AM68 °FPassing clouds.9 mph78%29.83 "HgN/A
3:00 AM68 °FPassing clouds.10 mph78%29.83 "HgN/A
8:00 PM
Jul 22
77 °FScattered clouds.6 mph51%29.83 "HgN/A
7:30 PM77 °FPassing clouds.10 mph51%29.83 "HgN/A
7:00 PM77 °FPassing clouds.10 mph51%29.83 "HgN/A
6:30 PM79 °FPassing clouds.12 mph45%29.83 "HgN/A
6:00 PM81 °FPassing clouds.14 mph45%29.83 "HgN/A
5:30 PM81 °FPassing clouds.15 mph42%29.80 "HgN/A
5:00 PM81 °FPassing clouds.16 mph42%29.83 "HgN/A
4:30 PM82 °FScattered clouds.15 mph42%29.83 "HgN/A
4:00 PM82 °FScattered clouds.16 mph45%29.83 "HgN/A
3:30 PM82 °FScattered clouds.13 mph45%29.83 "HgN/A
3:00 PM81 °FScattered clouds.8 mph45%29.83 "HgN/A
2:30 PM81 °FScattered clouds.6 mph42%29.83 "HgN/A
2:00 PM82 °FScattered clouds.6 mph40%29.83 "HgN/A
Weather by CustomWeather, © 2014

See weather overviewHow to use our weather pages